{"data":{"norad_id":53070,"intl_designator":"2022-077AD","name":"STARLINK-4342","alt_names":[],"object_type":"PAYLOAD","status":"ACTIVE","operator":null,"country":"US","launch_date":"2022-07-11","launch_site_code":"AFWTR","launch_vehicle":null,"mission":null,"orbit_class":"UNKNOWN","rcs_meters":null,"size_class":null,"mass_kg":null,"dimensions":null,"purposes":["comms"],"wikipedia_slug":null,"has_3d_model":false,"image_url":null,"decayed_at":null,"tle_current":{"epoch":"2026-05-25T00:33:23.366304Z","epoch_age_seconds":81959,"freshness":"FRESH","line1":"1 53070U 22077AD  26145.02318711  .00008750  00000+0  61056-3 0  9994","line2":"2 53070  97.4477 326.1694 0001347  90.2834 269.8547 15.05599866212478","mean_motion":15.05599866,"eccentricity":0.0001347,"inclination_deg":97.4477,"raan_deg":326.1694,"arg_perigee_deg":90.2834,"mean_anomaly_deg":269.8547,"bstar":0.00061056,"rev_number":21247,"period_min":95.64294156227,"perigee_km":548.73176445972,"apogee_km":550.59811430219,"semimajor_km":6927.801939381,"source":"CELESTRAK","updated_at":"2026-05-25T13:38:17.311505Z"}}}